ティルブルック彗星

C/1999 A1 ( Tilbrook )

English version
Home page
Updated on July 11, 1999

---------------------------------------------------------------------

・ プロフィール

発見日 1999年 1月12日
発見光度 10.5等
発見者 Justin Tilbrook (Clare, South Australia)

・ 写真集

・ 軌道要素

   The following improved orbital elements by Kenji Muraoka, are 
  from 64 observations  1999 Jan. 13  to  Feb. 25, perturbations 
  by 9 Planets, Moon and 5 minor planets were taken into account.
   The mean residual is +/- 0.67 arc seconds.

      Epoch  =  1999 Jan  = 2451200.5
          T  =  1999 Jan. 29.65791       +/- 0.00058 (m.e.) TT
       Peri. =  232.67071                +/- 0.00076
       Node  =  259.12246                +/- 0.00062   (2000.0)
       Incl. =   89.48108                +/- 0.00091
          q  =    0.7307403              +/- 0.0000029 AU
          e  =    0.9958512              +/- 0.0000423
        1/a  =   +0.0056775              +/- 0.0000579 1/AU
        ( P  =   2338 years )

・ 星図

・ 光度変化

        m1 = 12.3 + 5 logΔ + 10.0 log r  [ ,0]  (              〜1999年 1月29日)
        m1 = 11.2 + 5 logΔ + 10.0 log r  [0, ]  (1999年 1月29日〜              )

---------------------------------------------------------------------

軌道要素は村岡健治氏の計算によるものです。
星図は StellaNavigator Ver.2.0 for Windows (アストロアーツ 編著 / アスキー出版局刊) で作成したものです。
光度グラフはComet for Windowsで作成したものです。

---------------------------------------------------------------------

Copyright(C) Seiichi Yoshida (comet@aerith.net). All rights reserved.